This demonstration page uses our WeatherBlox Daily Observations layout. Learn more.

Hourly Observations for March 16, 2018

Temp ( °F °C ) Dew Point ( °F °C ) Humidity (%) Winds ( mph kmh ) Pressure ( in mb ) Visibility ( mi km ) Precip ( " mm )
12:15 am 00:15 Clear 50 10.1 33 0.8 53 53 E 24 39 29.5 999 10 16.0934 0 0
12:35 am 00:35 Clear 50 9.8 33 0.8 54 54 E 25 41 29.47 998 10 16.0934 0 0
12:55 am 00:55 Clear 50 10 34 1.1 54 54 E 24 39 29.47 998 10 16.0934 0 0
1:15 am 01:15 Clear 51 10.5 35 1.7 55 55 E 28 44 29.47 998 10 16.0934 0 0
1:35 am 01:35 Mostly Cloudy 51 10.3 36 2 57 57 E 26 43 29.47 998 10 16.0934 0 0
1:55 am 01:55 Mostly Cloudy 49 9.6 35 1.8 59 59 E 21 33 29.47 998 10 16.0934 0 0
2:15 am 02:15 Partly Cloudy 49 9.4 36 2.1 61 61 E 24 39 29.47 998 10 16.0934 0 0
2:35 am 02:35 Clear 49 9.3 37 2.6 63 63 E 25 41 29.47 998 10 16.0934 0 0
2:55 am 02:55 Clear 48 9 37 3 66 66 E 28 44 29.44 997 10 16.0934 0 0
3:15 am 03:15 Clear 48 9.1 38 3.2 67 67 E 26 43 29.44 997 10 16.0934 0 0
3:35 am 03:35 Clear 48 9 38 3.1 67 67 E 29 46 29.44 997 10 16.0934 0 0
3:55 am 03:55 Mostly Cloudy 47 8.3 37 3 70 70 E 31 50 29.44 997 10 16.0934 0 0
4:15 am 04:15 Partly Cloudy 46 7.6 37 2.7 71 71 E 28 44 29.44 997 10 16.0934 0 0
4:35 am 04:35 Mostly Cloudy 46 7.5 37 3 73 73 E 29 46 29.44 997 10 16.0934 0 0
4:55 am 04:55 Partly Cloudy 45 7.4 38 3.5 77 77 E 31 50 29.41 996 10 16.0934 0 0
5:15 am 05:15 Partly Cloudy 44 6.7 38 3.2 79 79 E 29 46 29.47 998 10 16.0934 0 0
5:35 am 05:35 Partly Cloudy 44 6.6 38 3.1 79 79 E 22 35 29.47 998 10 16.0934 0 0
5:55 am 05:55 Cloudy 44 6.9 38 3.2 78 78 E 28 44 29.47 998 10 16.0934 0 0
6:15 am 06:15 Cloudy 45 7 38 3.2 77 77 E 28 44 29.47 998 10 16.0934 0 0
6:35 am 06:35 Windy with Storms Likely 44 6.7 38 3.6 81 81 E 26 43 29.47 998 10 16.0934 0 0
6:55 am 06:55 Cloudy with Thunderstorms 43 6.3 40 4.6 89 89 E 25 41 29.47 998 10 16.0934 0 0
7:15 am 07:15 Cloudy 43 6.3 40 4.5 88 88 E 29 46 29.47 998 10 16.0934 0 0
7:35 am 07:35 Cloudy with Nearby Thunderstorms 44 6.5 40 4.7 88 88 E 28 44 29.47 998 10 16.0934 0 0
7:55 am 07:55 Cloudy 43 6.2 40 4.6 90 90 E 26 43 29.47 998 10 16.0934 0 0
8:15 am 08:15 Cloudy 43 6 40 4.3 89 89 E 28 44 29.47 998 10 16.0934 0 0
8:35 am 08:35 Cloudy 42 5.8 39 4.1 89 89 E 26 43 29.47 998 10 16.0934 0 0
8:55 am 08:55 Cloudy 43 6 40 4.2 88 88 E 25 41 29.47 998 10 16.0934 0 0
9:15 am 09:15 Cloudy 44 6.4 40 4.3 87 87 E 26 43 29.47 998 10 16.0934 0 0
9:35 am 09:35 Cloudy 44 6.5 40 4.3 86 86 E 25 41 29.47 998 10 16.0934 0 0
9:55 am 09:55 Cloudy 44 6.6 40 4.2 85 85 E 24 39 29.47 998 10 16.0934 0 0
10:15 am 10:15 Cloudy 44 6.5 39 4.1 85 85 E 26 43 29.5 999 10 16.0934 0 0
10:35 am 10:35 Cloudy 43 6.3 39 4 85 85 E 20 31 29.5 999 10 16.0934 0 0
10:55 am 10:55 Cloudy 43 6 39 4 87 87 E 18 30 29.5 999 10 16.0934 0 0
11:15 am 11:15 Cloudy 43 6 39 4.1 88 88 E 20 31 29.5 999 10 16.0934 0 0
11:35 am 11:35 Cloudy 44 6.5 40 4.4 87 87 ENE 24 39 29.5 999 10 16.0934 0 0
11:55 am 11:55 Cloudy 43 6.1 40 4.2 88 88 ENE 23 37 29.53 1000 10 16.0934 0 0
12:15 pm 12:15 Cloudy 42 5.8 40 4.2 90 90 ENE 23 37 29.53 1000 7 11.26538 0 0
12:35 pm 12:35 Cloudy 42 5.5 40 4.5 93 93 ENE 20 31 29.56 1001 7 11.26538 0 0
12:55 pm 12:55 Cloudy with Mist and Fog 41 5 40 4.5 97 97 NE 14 22 29.62 1003 5 8.0467 0 0
1:15 pm 13:15 Cloudy with Mist and Fog 40 4.6 40 4.2 97 97 NE 16 26 29.62 1003 5 8.0467 0 0
1:35 pm 13:35 Cloudy with Mist and Fog 40 4.3 39 4 98 98 N 13 20 29.62 1003 4 6.43736 0 0
1:55 pm 13:55 Cloudy with Mist and Fog 39 4 38 3.6 97 97 N 14 22 29.62 1003 5 8.0467 0 0
2:15 pm 14:15 Cloudy with Mist and Fog 38 3.3 38 3.2 99 99 N 16 26 29.62 1003 5 8.0467 0 0
2:35 pm 14:35 Cloudy 37 2.8 37 2.5 98 98 NNE 18 30 29.65 1004 10 16.0934 0 0
2:55 pm 14:55 Cloudy with Light Wintry Mix 33 0.7 33 0.6 99 99 N 15 24 29.68 1005 2 3.21868 0.02 0.508
3:15 pm 15:15 Cloudy with Light Snow 33 0.5 33 0.5 100 100 N 14 22 29.68 1005 1 1.60934 0.02 0.508
3:35 pm 15:35 Cloudy with Light Snow 33 0.5 33 0.5 100 100 N 14 22 29.71 1006 1 1.60934 0.03 0.762
3:55 pm 15:55 Cloudy with Light Rain 33 0.6 33 0.6 100 100 N 13 20 29.71 1006 3 4.82802 0.1 2.54
4:15 pm 16:15 Cloudy with Light Rain 33 0.7 33 0.7 100 100 N 12 19 29.74 1007 4 6.43736 0.04 1.016
4:35 pm 16:35 Cloudy with Light Snow 33 0.7 33 0.7 100 100 NNW 12 19 29.77 1008 3 4.82802 0.07 1.778
4:55 pm 16:55 Cloudy with Light Snow 33 0.6 33 0.6 100 100 NNW 12 19 29.77 1008 1.5 2.41401 0.11 2.794
5:15 pm 17:15 Cloudy with Light Snow 33 0.6 33 0.6 100 100 NNW 10 17 29.8 1009 3 4.82802 0.01 0.254
5:35 pm 17:35 Cloudy with Light Rain 33 0.6 33 0.6 100 100 NNW 12 19 29.8 1009 2 3.21868 0.02 0.508
5:55 pm 17:55 Cloudy with Rain 33 0.5 33 0.5 100 100 NNW 16 26 29.8 1009 1.25 2.011675 0.05 1.27
6:15 pm 18:15 Cloudy with Drizzle 33 0.5 33 0.5 100 100 NNW 13 20 29.88 1012 2 3.21868 0.01 0.254
6:35 pm 18:35 Cloudy with Light Rain 33 0.4 33 0.4 100 100 NNW 14 22 29.88 1012 3 4.82802 0.01 0.254
6:55 pm 18:55 Cloudy 33 0.5 33 0.5 100 100 NNW 13 20 29.88 1012 7 11.26538 0.01 0.254
7:15 pm 19:15 Cloudy 33 0.5 33 0.5 100 100 NNW 10 17 29.88 1012 10 16.0934 0 0
7:35 pm 19:35 Cloudy 33 0.5 33 0.5 100 100 NNW 12 19 29.88 1012 10 16.0934 0 0
7:55 pm 19:55 Cloudy 33 0.5 33 0.3 99 99 NNW 10 17 29.88 1012 10 16.0934 0 0
8:15 pm 20:15 Cloudy 33 0.5 32 0.2 98 98 NNW 10 17 29.88 1012 10 16.0934 0 0
8:35 pm 20:35 Cloudy 33 0.5 33 0.3 99 99 NNW 9 15 29.88 1012 10 16.0934 0 0
8:55 pm 20:55 Cloudy 33 0.5 32 0.2 98 98 NNW 12 19 29.91 1013 10 16.0934 0 0
9:15 pm 21:15 Cloudy 33 0.5 32 0 96 96 NNW 10 17 29.91 1013 10 16.0934 0 0
9:35 pm 21:35 Cloudy 33 0.5 32 0.1 97 97 NNW 8 13 29.91 1013 10 16.0934 0 0
9:55 pm 21:55 Cloudy 33 0.5 32 0.2 98 98 NNW 6 9 29.91 1013 10 16.0934 0 0
10:15 pm 22:15 Cloudy 33 0.5 32 0.2 98 98 NNW 8 13 29.91 1013 10 16.0934 0 0
10:35 pm 22:35 Cloudy 33 0.6 32 0.2 97 97 NNW 7 11 29.94 1014 10 16.0934 0 0
10:55 pm 22:55 Cloudy 33 0.6 32 0.2 97 97 N 9 15 29.94 1014 10 16.0934 0 0
11:15 pm 23:15 Cloudy 33 0.5 32 0.1 97 97 NNW 9 15 29.97 1015 10 16.0934 0 0
11:35 pm 23:35 Cloudy 33 0.5 32 0.1 97 97 NNW 7 11 29.97 1015 10 16.0934 0 0
11:55 pm 23:55 Cloudy 33 0.6 32 0.1 97 97 NW 10 17 29.97 1015 10 16.0934 0 0

Powered by AerisWeather